Location: Gold Fund Mine
(38.3819°N, 119.0996°W)
Time: 23:33:59
(UTC+00:00)

Cosmos 1937 Rocket - Pass Details

Date: 18 September 2020
Orbit: 747 x 779 km, 74.0° (Epoch: 20 October)

Event Time Altitude Azimuth Distance (km) Brightness Sun altitude
Rises 12:37:23 0° 346° (NNW) 3,206 6.7 -13.2°
Reaches altitude 10° 12:39:48 10° 351° (N) 2,275 6.0 -12.7°
Maximum altitude 12:44:51 53° 69° (ENE) 912 4.3 -11.8°
Drops below altitude 10° 12:49:50 10° 146° (SE) 2,257 6.2 -10.8°
Sets 12:52:14 0° 151° (SSE) 3,178 7.0 -10.4°
